Dewpoint
28 28 25 22 22 25 24 25 22 23 26 27 34 35 36 36 37 36 36 35 35 34 33 32 32 27 26 26 27 28 29 31 33 34 34 35 35 36 36 36 36 37 35 32
25 31 30 23 23 23 23 25 27 26 30 35 36 36 37 37 37 36 35 35 34 34 34 34 26 24 24 23 25 26 29 32 34 34 34 34 34 35 36 37 33 34 34 31
16 28 23 16 21 27 26 27 26 27 30 36 34 35 37 37 36 35 35 34 34 34 33 25 23 23 22 23 24 25 32 33 34 35 34 34 35 34 34 33 33 32 30 26
17 19 5 19 28 29 26 29 32 34 35 34 34 36 37 37 36 36 35 34 31 25 24 23 22 21 23 22 23 31 31 32 33 33 33 34 34 33 34 34 30 28 26 25
17 19 17 20 30 29 27 26 35 34 35 35 37 35 34 36 35 34 34 33 24 21 22 21 19 20 21 22 27 28 28 29 30 31 33 33 33 32 32 30 27 27 26 25
25 9 5 17 31 33 30 25 37 36 36 36 36 29 32 36 36 35 25 20 17 19 19 19 19 21 22 25 26 27 28 28 30 30 31 31 31 31 32 29 27 26 25 24
16 13 21 25 33 33 22 21 38 37 37 36 34 34 34 37 36 26 18 17 20 20 20 20 22 24 25 26 26 27 28 29 28 28 28 28 29 30 28 26 25 24 23 23
26 18 19 31 32 28 31 35 39 39 38 37 37 37 39 35 23 18 17 18 20 21 22 23 24 26 25 25 27 27 28 27 27 28 27 24 25 25 25 24 23 23 9 15
28 28 30 32 34 35 38 39 39 39 39 39 39 38 32 24 21 19 18 19 21 21 23 25 25 27 26 27 28 28 28 27 27 26 27 25 22 23 23 22 19 19 21 14
30 30 33 33 37 40 40 39 39 40 40 40 39 30 25 22 21 19 19 21 22 24 25 26 27 28 29 29 29 28 27 27 27 25 25 26 23 23 22 19 17 21 18 17
31 33 37 39 40 40 40 40 40 41 40 39 33 24 22 21 21 21 22 24 25 26 27 27 29 29 29 29 28 27 27 27 26 25 24 26 23 23 25 23 21 19 18 17
30 34 35 34 40 40 39 39 40 37 27 25 23 21 21 22 23 24 24 26 27 28 28 29 29 28 29 30 30 30 29 28 27 25 23 25 25 23 25 25 27 28 28 16
34 36 37 39 40 40 40 41 35 25 22 22 22 22 23 24 25 27 26 27 28 28 30 29 28 28 29 30 29 30 29 29 29 25 25 23 24 25 23 22 25 25 26 27
41 41 38 39 39 42 40 31 28 23 24 25 25 25 25 26 26 25 26 28 28 29 28 28 28 29 30 30 30 29 29 28 27 26 27 24 24 25 24 23 14 16 22 24
41 40 40 41 41 35 24 22 23 24 25 26 26 27 27 26 26 26 28 29 28 28 28 27 26 27 28 30 31 30 29 28 26 23 25 22 24 21 23 23 17 17 14 17
40 39 39 37 27 23 24 25 24 25 25 25 25 26 28 28 28 28 28 28 26 26 27 27 26 27 28 30 33 32 30 27 25 22 23 23 23 20 23 22 21 22 13 13
38 37 27 26 28 29 29 26 26 26 27 26 25 27 27 25 25 27 27 26 23 23 27 28 27 28 29 32 33 32 30 26 25 25 22 21 20 21 23 23 23 17 14 10
32 31 32 34 34 31 28 28 27 26 25 26 24 18 18 21 25 24 23 23 22 23 25 26 26 28 30 32 31 31 28 25 23 19 18 12 16 17 17 18 19 19 15 14
35 35 35 33 30 29 29 28 27 27 24 22 20 21 20 21 24 25 23 20 21 23 26 24 26 27 30 31 30 30 25 20 18 18 17 15 11 14 15 17 21 21 22 16
35 34 33 30 28 26 25 25 26 27 27 24 18 24 26 23 21 21 19 22 25 27 27 27 26 27 29 30 30 29 26 22 19 17 12 16 16 14 12 15 18 21 20 16
25 25 25 27 27 26 25 25 23 26 27 20 21 27 28 26 22 19 19 24 26 24 26 24 27 30 30 30 31 30 28 26 24 23 21 21 22 20 16 14 17 18 17 19
25 25 24 24 25 25 26 26 27 23 23 22 22 29 28 27 24 21 21 24 27 22 25 27 30 30 30 31 31 31 30 28 27 26 23 22 23 23 21 20 17 19 22 19
27 27 27 25 24 27 27 26 23 22 23 24 23 24 23 26 26 22 25 25 25 23 29 30 29 29 30 32 32 31 30 29 28 27 26 25 25 25 25 23 22 22 22 20
27 27 27 27 25 25 25 27 27 28 24 25 24 23 23 25 25 24 27 28 23 20 27 29 28 29 30 30 30 30 30 30 29 28 27 26 26 26 26 25 24 23 22 22
27 27 27 25 27 27 28 28 28 27 26 26 26 26 25 24 25 22 21 23 20 25 23 24 27 28 29 29 29 29 30 30 29 28 28 27 26 27 26 27 26 24 22 22
28 28 28 28 28 28 28 28 27 27 24 25 26 23 23 21 27 30 26 19 25 19 17 19 18 21 24 25 25 26 27 29 30 30 29 28 28 27 27 27 26 23 22 23
27 24 27 27 28 28 27 27 27 28 30 29 28 30 28 29 30 28 22 23 20 20 18 16 15 16 16 15 16 17 18 22 24 27 29 30 28 28 28 27 25 23 22 21
Lifted_Index
3 3 4 4 4 4 4 4 3 3 3 4 4 4 3 3 3 3 3 4 4 4 5 7 8 10 10 11 11 12 12 12 13 13 13 12 11 11 10 9 7 6 5 5
3 3 4 3 4 4 4 4 4 4 4 4 4 3 3 3 3 3 3 4 4 5 6 8 9 10 11 11 12 12 13 13 13 13 12 11 11 11 10 8 7 6 5 5
3 3 3 3 3 4 4 4 4 4 4 4 4 3 3 3 3 3 3 4 5 7 8 9 10 11 11 12 12 13 13 13 13 12 12 11 11 11 9 8 6 6 5 5
3 3 3 3 4 4 4 4 4 4 4 4 4 3 3 3 3 3 4 5 7 8 9 10 11 11 12 12 13 13 13 13 12 12 11 11 11 10 8 7 6 6 6 5
2 2 3 3 4 4 4 4 4 4 4 4 4 4 3 3 3 4 5 7 8 9 10 10 11 12 12 13 13 13 12 12 12 12 11 11 10 9 7 6 6 6 6 6
3 2 3 4 4 4 4 4 4 4 4 4 4 3 3 3 4 5 7 8 9 9 10 11 11 12 13 13 13 12 12 12 12 11 11 11 9 8 6 6 6 6 6 6
3 3 3 4 4 4 4 4 4 4 4 4 4 3 3 4 5 6 7 8 9 10 10 11 12 13 13 13 12 12 11 11 11 11 10 10 9 7 6 6 6 6 6 7
4 3 4 5 5 4 4 5 4 4 4 4 3 3 3 4 5 7 8 9 9 10 11 12 13 13 13 12 12 11 11 11 10 10 9 9 8 7 6 6 6 7 7 7
4 4 5 5 5 4 5 5 4 4 4 3 3 3 4 4 6 7 8 9 10 11 12 13 13 13 12 12 11 11 11 10 9 9 8 8 8 7 7 7 7 7 7 7
4 4 4 4 4 4 4 4 4 4 4 3 3 4 4 6 7 8 9 10 11 12 13 13 13 13 12 12 11 11 10 9 8 8 8 8 8 8 7 7 7 7 7 7
4 4 4 4 4 4 4 4 3 3 3 3 4 5 6 7 8 9 10 11 12 13 13 13 13 12 12 11 11 10 9 8 8 7 7 8 8 8 8 8 8 8 8 7
4 4 4 4 3 3 3 3 3 3 3 4 5 6 7 8 9 10 12 13 13 13 13 13 12 12 11 10 10 9 8 7 7 7 7 7 8 8 8 8 8 8 8 8
4 4 3 3 3 3 3 3 2 3 4 5 7 8 8 9 11 12 13 13 13 13 12 12 12 11 10 9 9 8 7 6 7 7 7 7 7 8 7 7 8 8 8 8
3 3 3 3 3 2 2 2 3 4 6 7 8 9 9 10 12 12 13 13 13 12 12 11 11 10 9 9 8 7 6 6 6 7 7 7 7 7 7 7 7 7 8 8
2 2 2 2 2 2 2 3 4 6 7 8 9 10 11 11 12 12 13 12 12 12 11 11 10 9 8 8 7 7 6 6 6 6 7 7 7 7 7 7 7 7 7 8
3 3 2 2 2 3 3 4 6 7 8 9 10 11 12 12 12 12 12 12 11 11 10 9 9 8 8 8 7 6 6 6 6 6 7 7 7 7 7 7 7 7 7 7
3 3 3 3 3 4 5 6 8 9 9 10 11 11 12 12 12 12 11 11 11 10 9 8 8 8 7 7 7 6 6 5 5 6 6 7 7 7 7 7 7 7 7 7
3 3 4 4 5 6 7 8 9 10 10 11 11 12 11 11 11 11 11 10 10 9 8 8 8 7 7 7 6 6 5 5 5 5 6 6 7 7 7 7 7 8 7 8
4 5 5 6 7 8 9 9 10 11 11 11 11 11 11 10 10 10 10 9 8 8 7 7 7 7 7 7 6 6 5 5 5 5 5 6 6 6 7 7 7 7 7 7
7 7 8 8 9 10 10 10 11 11 11 11 10 10 10 9 9 9 8 7 7 7 6 6 6 7 6 6 6 5 5 5 4 5 5 5 5 6 6 7 7 7 7 7
8 8 9 9 9 10 11 11 10 10 10 10 9 9 8 8 7 7 6 6 6 5 5 5 6 6 6 6 5 5 5 5 5 5 5 5 5 5 5 6 7 7 7 7
8 8 8 9 9 10 10 10 10 9 9 8 8 7 7 6 6 5 5 5 5 5 5 5 5 5 5 5 5 5 5 5 5 5 5 5 5 5 5 5 6 7 7 7
8 8 9 9 9 9 9 9 8 8 7 7 6 6 5 5 5 4 4 4 5 5 5 5 5 5 5 5 5 5 5 5 5 5 5 5 5 5 5 5 5 6 7 7
8 8 9 9 9 8 8 8 7 7 6 6 5 5 5 5 5 4 5 5 5 6 6 6 5 5 5 5 5 5 5 5 5 5 5 5 5 5 5 5 5 6 6 6
8 8 8 7 7 7 7 6 6 6 6 5 5 5 5 5 5 5 5 6 6 7 7 6 6 6 6 6 6 6 6 6 6 6 5 5 5 5 5 5 6 6 6 6
7 7 6 6 6 6 6 6 6 5 5 5 5 5 5 5 6 6 6 6 7 8 8 7 6 6 6 6 6 6 6 6 6 6 6 6 6 6 6 6 6 6 6 6
6 6 6 6 6 5 5 5 6 6 6 6 6 6 6 6 6 6 7 7 8 8 8 7 7 6 6 6 6 6 6 7 7 7 7 6 6 6 6 6 6 6 7 6